Al Hoceima, Morocco

9:02 AM WEST on August 22, 2017 (GMT +0100)
Al Hoceima

Weather History for GMTA - November, 2012

Change the Weather History Date:

Thursday, November 1, 2012

  Actual Average Record
Temperature  
Mean Temperature 66 °F -  
Max Temperature 73 °F 66 °F 82 °F (2006)
Min Temperature 59 °F 52 °F 50 °F (2007)
Cooling Degree Days 1    
Growing Degree Days 16 (Base 50)    
Moisture  
Dew Point 61 °F    
Average Humidity 79    
Maximum Humidity 88    
Minimum Humidity 69    
Precipitation  
Precipitation 0.51 in - - ()
Sea Level Pressure  
Sea Level Pressure 29.80 in    
Wind  
Wind Speed 3 mph ()    
Max Wind Speed 7 mph    
Max Gust Speed -    
Visibility 5.9 miles    
Events Rain    
Averages and records for this station are not official NWS values.
T = Trace of Precipitation, MM = Missing Value Source: Averaged Metar Reports

Daily Weather History Graph

Daily Weather History Graph

Search for Another Location

Airport or City:

Trip Planner

Search our weather history database for the weather conditions in past years. The results will help you decide how hot, cold, wet, or windy it might be!

Date:

Astronomy

Nov. 01, 2012 Rise Set
Actual Time 6:36 AM WET 5:20 PM WET
Civil Twilight 6:10 AM WET 5:46 PM WET
Nautical Twilight 5:40 AM WET 6:16 PM WET
Astronomical Twilight 5:11 AM WET 6:46 PM WET
Moon 7:11 PM WET (11/1) 8:52 AM WET (11/1)
Length of Visible Light 11h 36m
Length of Day
10h 43m
Waning Gibbous, 94% of the Moon is Illuminated
Nov 1
Waning Gibbous
Nov 7
Last Quarter
Nov 13
New
Nov 20
First Quarter
Nov 28
Full

Hourly Weather History & Observations

Time (WET) Temp. Dew Point Humidity Pressure Visibility Wind Dir Wind Speed Gust Speed Precip Events Conditions
6:00 AM 62 °F 57 °F 80% 29.68 in 5 mi SSW 2.3 mph - - Rain Rain
6:00 AM 62.6 °F 57.2 °F 82% 29.65 in 5.0 mi SW 2.3 mph - N/A Rain Rain
7:00 AM 62.6 °F 57.2 °F 82% 29.68 in 5.0 mi West 2.3 mph - N/A Rain Rain
8:00 AM 62.6 °F 59.0 °F 88% 29.71 in 6.2 mi SW 4.6 mph - N/A   Overcast
9:00 AM 66 °F 63 °F 85% 29.73 in 6 mi SSE 2.3 mph - -   Partly Cloudy
9:00 AM 66.2 °F 62.6 °F 88% 29.71 in 6.2 mi SSE 2.3 mph - N/A   Mostly Cloudy
10:00 AM 68.0 °F 62.6 °F 83% 29.74 in 5.0 mi ENE 2.3 mph - N/A Rain Light Rain
11:00 AM 69.8 °F 64.4 °F 83% 29.77 in 5.0 mi SSE 4.6 mph - N/A Rain Light Rain
12:00 PM 72 °F 65 °F 74% 29.78 in 6 mi SSW 2.3 mph - - Rain Light Rain
12:00 PM 73.4 °F 66.2 °F 78% 29.77 in 6.2 mi SSW 2.3 mph - N/A   Mostly Cloudy
1:00 PM 71.6 °F 64.4 °F 78% 29.77 in 6.2 mi NNW 4.6 mph - N/A   Mostly Cloudy
2:00 PM 69.8 °F 62.6 °F 78% 29.77 in 6.2 mi NNE 6.9 mph - N/A   Mostly Cloudy
3:00 PM 70 °F 63 °F 73% 29.81 in 6 mi ENE 6.9 mph - -   Partly Cloudy
3:00 PM 69.8 °F 62.6 °F 78% 29.80 in 6.2 mi ENE 6.9 mph - N/A   Scattered Clouds
4:00 PM 69.8 °F 62.6 °F 78% 29.83 in 6.2 mi West 6.9 mph - N/A   Scattered Clouds
5:00 PM 69.8 °F 60.8 °F 73% 29.86 in 6.2 mi West 4.6 mph - N/A   Scattered Clouds
6:00 PM 68 °F 60 °F 69% 29.90 in 6 mi West 2.3 mph - -   Partly Cloudy
6:00 PM 68.0 °F 60.8 °F 78% 29.89 in 6.2 mi West 2.3 mph - N/A   Scattered Clouds
7:00 PM 68.0 °F 59.0 °F 73% 29.92 in 6.2 mi SW 2.3 mph - N/A   Scattered Clouds
8:00 PM 66.2 °F 59.0 °F 78% 29.92 in 6.2 mi SSW 2.3 mph - N/A   Partly Cloudy
9:00 PM 64 °F 58 °F 74% 29.94 in 6 mi SW 2.3 mph - -   Partly Cloudy
9:00 PM 64.4 °F 57.2 °F 77% 29.92 in 6.2 mi SW 2.3 mph - N/A   Partly Cloudy